Flag for China Weather past 2 weeks in Guilin, Guangxi, China

Now
84 °F

Passing clouds.


Feels Like: 98 °F
Forecast: 77 / 89 °F
Wind: 1 mph from North

Location: Guilin Airport

Current Time: May 27, 2015 at 8:14:52 PM

Latest Report: May 27, 2015 at 7:00 PM


Visibility: N/A

Pressure: 29.59 "Hg

Humidity: 89%

Dew point: 81 °F

Location of GuilinLocation

Historic Weather in Guilin — Graph

°F

Guilin temperature yesterday

Maximum temperature yesterday: 81 °F (at 3:00 PM)
Minimum temperature yesterday: 75 °F (at 5:00 AM)
Average temperature yesterday: 78 °F

Past Weeks' High & Low Weather Summary

 TemperatureHumidityPressure
High88 °F (May 27, 1:00 PM)100% (May 15, 2:00 AM)29.89 "Hg (May 15, 2:00 AM)
Low68 °F (May 23, 11:00 PM)51% (May 12, 7:00 PM)29.56 "Hg (May 27, 5:00 PM)
Average76 °F88%29.74 "Hg
* Reported May 12 7:00 PM — May 27 7:00 PM, Guilin, Weather by CustomWeather, © 2015

Note: Actual official high and low records may vary slightly from our data, if they occured in-between our weather recording intervals... More about our weather records

Advertising

Guilin weather history for previous 24 hours

 ConditionsComfort  
Time TempWeatherWind HumidityBarometerVisibility
7:00 PM
Wed, May 27
84 °FPassing clouds.1 mph89%29.59 "HgN/A
6:00 PM86 °FPassing clouds.1 mph84%29.56 "HgN/A
5:00 PM88 °FScattered clouds.8 mph75%29.56 "HgN/A
4:00 PM88 °FScattered clouds.3 mph70%29.59 "HgN/A
3:00 PM88 °FScattered clouds.6 mph75%29.59 "HgN/A
2:00 PM86 °FMore clouds than sun.6 mph75%29.65 "HgN/A
1:00 PM88 °FMore clouds than sun.6 mph70%29.65 "HgN/A
12:00 PM86 °FMore clouds than sun.10 mph75%29.68 "HgN/A
11:00 AM86 °FBroken clouds.13 mph75%29.68 "HgN/A
10:00 AM84 °FFog.6 mph79%29.71 "Hg3 mi
9:00 AM81 °FFog.No wind94%29.68 "Hg1 mi
8:00 AM77 °FFog.1 mph100%29.71 "Hg1 mi
7:00 AM77 °FFog.No wind94%29.71 "Hg1 mi
6:00 AM75 °FFog.No wind100%29.68 "Hg1 mi
5:00 AM75 °FFog.No wind100%29.65 "Hg1 mi
4:00 AM77 °FFog.No wind94%29.68 "Hg1 mi
3:00 AM77 °FFog.1 mph94%29.65 "Hg1 mi
2:00 AM77 °FFog.No wind94%29.68 "Hg1 mi
1:00 AM77 °FFog.1 mph94%29.68 "Hg1 mi
12:00 AM77 °FFog.No wind100%29.68 "Hg1 mi
11:00 PM
Tue, May 26
79 °FFog.3 mph94%29.71 "Hg2 mi
10:00 PM79 °FFog.1 mph94%29.71 "Hg2 mi
9:00 PM79 °FFog.1 mph94%29.68 "Hg2 mi
8:00 PM79 °FFog.No wind94%29.65 "Hg2 mi
Weather by CustomWeather, © 2015

See weather overviewHow to use our weather pages